Welcome to the New NWS' Forecast!
Most changes are behind the scenes, but click here for differences you might notice.

Regional Weather Roundup (RWR)

Issued by NWS Wilmington, NC (ILM)

                            
871 
ASUS42 KILM 201213
RWRILM
RWRILM
REGIONAL HOURLY WEATHER ROUNDUP
NATIONAL WEATHER SERVICE WILMINGTON NC
800 AM EDT MON AUG 20 2018
 
NOTE: "FAIR" INDICATES FEW OR NO CLOUDS BELOW 12,000 FEET WITH NO
SIGNIFICANT WEATHER AND/OR OBSTRUCTIONS TO VISIBILITY.
 
...............WFO WILMINGTON COUNTY WARNING AREA...............

......COASTAL NC AND SC COUNTIES......
  
CITY           SKY/WX    TMP DP  RH WIND       PRES   REMARKS
WILMINGTON     FAIR      78  70  76 SW8       30.05R                  
N MYRTLE BEACH FAIR      78  71  79 W5        30.05R                  
MYRTLE BEACH   FAIR      78  71  79 W8        30.06R                  

......INLAND NC AND SC COUNTIES.......
  
CITY           SKY/WX    TMP DP  RH WIND       PRES   REMARKS
LUMBERTON      FAIR      75  72  90 SW6       30.04R                  
ELIZABETHTOWN  FAIR      76  74  92 SW5       30.05R                  
WHITEVILLE     FAIR      77  72  84 CALM      30.05R                  
FLORENCE       FAIR      76  72  87 SW8       30.06R                  
DARLINGTON     CLOUDY    74  72  93 S7        30.06R                  
KINGSTREE      FAIR      73  72  94 CALM      30.06R                  
HARTSVILLE     CLOUDY    72  72 100 S6        30.05R                  
BENNETTSVILLE  CLOUDY    73  73 100 S5        30.04R                  
CONWAY         FAIR      73  73 100 CALM      30.06R                  
GEORGETOWN     FAIR      75  73  94 W6        30.07R                  
MARION           N/A     73  70  88 SW5       30.05S FOG              
 
....................REST OF NORTH CAROLINA......................

.........EASTERN NC.........
  
CITY           SKY/WX    TMP DP  RH WIND       PRES   REMARKS
CAPE HATTERAS  LGT RAIN  77  74  90 S6        30.05R FOG              
JACKSONVILLE   CLOUDY    75  73  93 S3        30.05R                  
MOREHEAD CITY  FAIR      76  75  97 S3        30.03S                  
KENANSVILLE    FAIR      75  73  94 CALM      30.03R                  
NEW BERN       FAIR      71  71 100 N3        30.06R                  
ELIZABETH CITY PTSUNNY   77  76  96 CALM      30.04R                  

.........CENTRAL NC.........
  
CITY           SKY/WX    TMP DP  RH WIND       PRES   REMARKS
RALEIGH DURHAM PTSUNNY   70  69  97 N3        30.03F                  
ROCKY MOUNT    FAIR      72  70  93 N6        30.02S                  
ROANOKE RAPIDS NOT AVBL                                               
FAYETTEVILLE   FAIR      76  74  93 S8        30.02S                  
HOFFMAN        PTSUNNY   75  74  98 CALM      30.03S                  

.........WESTERN NC.........
  
CITY           SKY/WX    TMP DP  RH WIND       PRES   REMARKS
CHARLOTTE      PTSUNNY   75  74  96 VRB3      30.04R                  
GREENSBORO     CLOUDY    70  70 100 NE7       30.06R FOG              
HICKORY        NOT AVBL                                               
BOONE          NOT AVBL                                               
ASHEVILLE      NOT AVBL                                               

.....................REST OF SOUTH CAROLINA.....................

.........EASTERN SC.........
  
CITY           SKY/WX    TMP DP  RH WIND       PRES   REMARKS
CHARLESTON     FAIR      77  72  84 W7        30.06R                  
BEAUFORT MCAS  NOT AVBL                                               
HILTON HEAD    SUNNY     75  73  94 W3        30.08R                  

.........CENTRAL SC.........
  
CITY           SKY/WX    TMP DP  RH WIND       PRES   REMARKS
COLUMBIA       PTSUNNY   76  74  93 W3        30.05R                  
ORANGEBURG     CLOUDY    73  70  90 S5        30.06R                  
SUMTER SHAW    MOSUNNY   73  71  92 SW5       30.05R                  

.........WESTERN SC.........
  
CITY           SKY/WX    TMP DP  RH WIND       PRES   REMARKS
GREENVILLE     NOT AVBL                                               
ROCK HILL      CLOUDY    74  74 100 VRB3      30.05R                  
ANDERSON       FAIR      75  72  90 SW7       30.04R                  
CLEMSON        NOT AVBL                                               
GREENWOOD      PTSUNNY   73  72  96 SW7       30.06R                  
 

...................COASTAL AND OFFSHORE REPORTS..................

................LOCAL PIERS AND NC RESERVE................

  
STATION/POSITION TIME  SKY/WX   TEMP    WIND        PRES    VSBY
                                AIR SEA DIR/SP/G
                 (UTC)          (F)     (DEG/KT/KT) (MB)    (MI)
JOHNY MRCER PIER 1148            78 80  230/  9/ 11 1017.8R
NC RESRV MASNBRO NOT AVBL
OCEAN CREST PIER NOT AVBL
SPRINGMAID  PIER 1136                               1020.8R


................COASTAL AND OFFSHORE BUOYS................

  
STATION/POSITION TIME  SKY/WX   TEMP    WIND        PRES    VSBY
                                AIR SEA DIR/SP/G
                 (UTC)          (F)     (DEG/KT/KT) (MB)    (MI)
DIMNDSHOAL 41025 1200            79 81  240/  8/ 16 1017.8
CAPE LOOKOUT     1200                   240/  8/ 11 1017.5R
ONSLOW BAY 41036 NOT AVBL
ONSLOW BAY 41064 1108            82 82  240/ 12/ 16 1017.1R
ONSLOW BAY 41159 NOT AVBL
MASNBO INL 41110 NOT AVBL
WILM HARBR 41108 NOT AVBL
27SE WRITB 41037 1108            80 81  240/ 16/ 23 1017.4R
FRYING PAN 41013 1200            82 82  240/ 16/ 17 1017.8
SUNST NRSH 41024 1108            81 82  260/ 14/ 19 1016.7R
CAPRS NRSH 41029 1108            81 82  270/ 10/ 14 1016.8R
EDISTO     41004 1200            82 83  260/ 10/ 12 1018.3


..........OFFSHORE BUOYS BEYOND 100 NM OFFSHORE...........
.....IN A TRIANGLE---HAT TO BERMUDA TO BAHAMAS TO HAT..... 

  
STATION/POSITION TIME  SKY/WX   TEMP    WIND        PRES    VSBY
                                AIR SEA DIR/SP/G
                 (UTC)          (F)     (DEG/KT/KT) (MB)    (MI)
150E HAT   41001 NOT AVBL
W BERMUDA  41048 1200               83  240/  6/ 10 1021.9
ATLANTIC S 41049 1200               83  360/  8/ 10 1022.3
E BAHAMAS  41046 1150               84   90/  8/ 12 1020.9R
WVE H/P(F/S)=  3/ 8 SWL H/P/D(F/S/D)=  3/120/ 8

NE BAHAMAS 41047 1150                   130/ 12/ 16 1020.6R
WVE H/P(F/S)=  3/ 8 SWL H/P/D(F/S/D)=  2/120/ 8

120E CANVRL41010 1150            84 85  170/ 10/ 12 1019.3R
WVE H/P(F/S)=  2/ 4 SWL H/P/D(F/S/D)=  2/110/ 8


END